W2DEN Weather Reports


Display with metric or nautical units.
time (UTC)temp
F
wind
direction
speed
MPH
gust
MPH
rain 1hr
in
rain 24hr
in
rain mn
in
humidity
%
barometer
mb
20260504050117 51 0.0 0.0 0.00 0.00 0.00 93 1018.7
20260504045117 52 0.0 0.0 0.00 0.00 0.00 93 1018.7
20260504044137 52 0.0 0.0 0.00 0.00 0.00 93 1018.6
20260504043118 52 0.0 0.0 0.00 0.00 0.00 92 1018.7
20260504042138 52 0.0 0.0 0.00 0.00 0.00 93 1018.6
20260504041117 52 0.0 0.0 0.00 0.00 0.00 92 1018.7
20260504040117 52 0.0 0.0 0.00 0.00 0.00 92 1018.7
20260504035117 52 0.0 0.0 0.00 0.00 0.00 91 1018.7
20260504034118 52 0.0 0.0 0.00 0.00 0.00 91 1018.7
20260504033118 53 0.0 0.0 0.00 0.00 0.00 90 1018.7
20260504032117 53 0.0 0.0 0.00 0.00 0.00 89 1018.6
20260504031117 54 0.0 0.0 0.00 0.00 0.00 89 1018.6
20260504030117 54 0.0 0.0 0.00 0.00 0.00 88 1018.6
20260504025138 54 0.0 0.0 0.00 0.00 0.00 88 1018.6
20260504024117 54 0.0 0.0 0.00 0.00 0.00 87 1018.6
20260504023142 55 0.0 0.0 0.00 0.00 0.00 86 1018.6
20260504022518 55 0.0 0.0 0.00 0.00 0.00 85 1018.6
20260504021517 55 0.0 0.0 0.00 0.00 0.00 85 1018.5
20260504020537 56 0.0 0.0 0.00 0.00 0.00 84 1018.4
20260504015517 56 0.0 0.0 0.00 0.00 0.00 83 1018.3
20260504014517 57 0.0 0.0 0.00 0.00 0.00 82 1018.1
20260504013538 57 0.0 0.0 0.00 0.00 0.00 81 1018.0
20260504012518 58 0.0 0.0 0.00 0.00 0.00 81 1018.0
20260504011517 58 0.0 0.0 0.00 0.00 0.00 80 1017.9
20260504010518 58 0.0 0.0 0.00 0.00 0.00 79 1017.8
20260504005517 59 0.0 0.0 0.00 0.00 0.00 77 1017.8
20260504004558 60 0.0 0.0 0.00 0.00 0.00 76 1017.7
20260504003518 61 0.0 0.0 0.00 0.00 0.00 75 1017.7
20260504002517 62 0.0 0.0 0.00 0.00 0.00 73 1017.5
20260504001518 63 0.0 0.0 0.00 0.00 0.00 70 1017.5
20260504000518 64 0.0 0.0 0.00 0.00 0.00 67 1017.3
20260503235558 65 0.0 0.0 0.00 0.00 0.00 64 1017.2
20260503234517 66 0.0 0.0 0.00 0.00 0.00 63 1017.1
20260503233517 66 0.0 0.0 0.00 0.00 0.00 63 1017.1
20260503232517 67 0.0 1.0 0.00 0.00 0.00 60 1017.0
20260503231518 68 0.0 0.0 0.00 0.00 0.00 59 1017.0
20260503230538 68 0.0 1.0 0.00 0.00 0.00 57 1017.0
20260503225538 69 158 1.0 1.0 0.00 0.01 0.00 55 1016.9
20260503224537 69 135 1.0 1.0 0.00 0.01 0.00 55 1016.9
20260503223517 70 0.0 1.0 0.00 0.01 0.00 54 1016.9
20260503222517 71 0.0 1.0 0.00 0.01 0.00 54 1016.8
20260503221518 71 0.0 1.0 0.00 0.01 0.00 51 1016.8
20260503220537 72 23 1.0 2.0 0.00 0.02 0.00 48 1016.8
20260503215517 74 0 1.0 2.0 0.00 0.02 0.00 42 1016.8
20260503214517 75 0.0 1.0 0.00 0.02 0.00 38 1016.9
20260503213517 75 0 1.0 2.0 0.00 0.02 0.00 37 1016.9
20260503212517 74 0.0 0.0 0.00 0.02 0.00 38 1016.8
20260503211517 74 0.0 1.0 0.00 0.03 0.00 39 1016.8
20260503210517 75 23 2.0 3.0 0.00 0.03 0.00 37 1016.8
20260503205517 75 0.0 0.0 0.00 0.03 0.00 39 1016.9
20260503204518 75 23 1.0 1.0 0.00 0.03 0.00 37 1016.9
20260503203517 74 23 2.0 3.0 0.00 0.05 0.00 41 1016.8
20260503202559 74 68 1.0 2.0 0.00 0.07 0.00 37 1017.2
20260503201539 74 0.0 1.0 0.00 0.08 0.00 43 1017.3
20260503200518 74 45 3.0 4.0 0.00 0.08 0.00 44 1017.5
20260503195517 73 23 1.0 3.0 0.00 0.08 0.00 42 1017.6
20260503194517 73 0 1.0 1.0 0.00 0.09 0.00 40 1017.8
20260503193518 74 0.0 0.0 0.00 0.09 0.00 43 1017.9
20260503192518 74 180 2.0 3.0 0.00 0.09 0.00 45 1018.1
20260503191517 74 203 1.0 2.0 0.00 0.09 0.00 41 1018.2
20260503190538 73 0 3.0 4.0 0.00 0.09 0.00 39 1018.4
20260503185617 74 225 1.0 1.0 0.00 0.09 0.00 41 1018.5
20260503184617 72 0 1.0 2.0 0.00 0.09 0.00 41 1018.7
20260503183657 74 0.0 2.0 0.00 0.09 0.00 46 1018.9
20260503182617 74 45 2.0 3.0 0.00 0.09 0.00 36 1019.0
20260503181637 75 45 2.0 3.0 0.00 0.09 0.00 39 1019.0
20260503180617 74 23 1.0 2.0 0.00 0.10 0.00 47 1019.3
20260503175637 72 23 1.0 3.0 0.00 0.10 0.00 43 1019.3
20260503174637 73 338 1.0 2.0 0.00 0.11 0.00 40 1019.4
20260503173637 72 0.0 2.0 0.00 0.13 0.00 51 1019.5
20260503172617 70 0.0 1.0 0.00 0.14 0.00 49 1019.6
20260503171618 71 0.0 0.0 0.00 0.15 0.00 45 1019.6
20260503170658 71 0.0 0.0 0.00 0.15 0.00 49 1019.6
20260503150617 66 0.0 2.0 0.00 0.26 0.00 59 1020.2
20260503130617 57 0.0 1.0 0.00 0.53 0.00 93 1019.5
20260503110617 46 0.0 0.0 0.00 1.00 0.00 97 1018.8
20260503080617 49 0.0 0.0 0.00 1.44 0.00 97 1016.9
20260503072617 50 0.0 0.0 0.00 1.60 0.00 97 1016.8
20260503071616 51 0.0 0.0 0.00 1.63 0.00 97 1016.8
20260503070616 51 0.0 0.0 0.00 1.65 0.00 97 1016.6